San Francisco, CA

12:16 AM PDT on October 01, 2016 (GMT -0700)
San Francisco International

Weather History for KSFO - July, 2013

Change the Weather History Date:

Tuesday, July 2, 2013

  Actual Average Record
Temperature  
Mean Temperature 70 °F 63 °F  
Max Temperature 82 °F 72 °F 97 °F (1970)
Min Temperature 58 °F 55 °F 47 °F (1954)
Degree Days  
Heating Degree Days 0 2  
Month to date heating degree days 0 4  
Since 1 June heating degree days 88 109  
Since 1 July heating degree days 0 4  
Cooling Degree Days 5 1  
Month to date cooling degree days 8 2  
Year to date cooling degree days 62 42  
Since 1 June cooling degree days 35 23  
Growing Degree Days 20 (Base 50)    
Moisture  
Dew Point 55 °F    
Average Humidity 61    
Maximum Humidity 80    
Minimum Humidity 42    
Precipitation  
Precipitation T in 0.00 in 0.35 in (1977)
Month to date precipitation T 0.00  
Year to date precipitation 1.89 13.08  
Since 1 July precipitation T  
Sea Level Pressure  
Sea Level Pressure 29.89 in    
Wind  
Wind Speed 14 mph (WNW)    
Max Wind Speed 29 mph    
Max Gust Speed 33 mph    
Visibility 10 miles    
Events      
T = Trace of Precipitation, MM = Missing Value Source: NWS Daily Summary

Daily Weather History Graph

Daily Weather History Graph

Search for Another Location

Airport or City:

Trip Planner

Search our weather history database for the weather conditions in past years. The results will help you decide how hot, cold, wet, or windy it might be!

Date:

Astronomy

Jul. 02, 2013 Rise Set
Actual Time 5:52 AM PDT 8:34 PM PDT
Civil Twilight 5:21 AM PDT 9:05 PM PDT
Nautical Twilight 4:42 AM PDT 9:44 PM PDT
Astronomical Twilight 3:58 AM PDT 10:27 PM PDT
Moon 1:54 AM PDT (7/2) 3:56 PM PDT (7/2)
Length of Visible Light 15h 44m
Length of Day
14h 42m
Waning Crescent, 25% of the Moon is Illuminated
Jul 2
Waning Crescent
Jul 8
New
Jul 15
First Quarter
Jul 22
Full
Jul 29
Last Quarter

Hourly Weather History & Observations

Time (PDT) Temp. Heat Index Dew Point Humidity Pressure Visibility Wind Dir Wind Speed Gust Speed Precip Events Conditions
12:56 AM 60.1 °F - 54.0 °F 80% 29.86 in 10.0 mi NW 9.2 mph - N/A   Mostly Cloudy
1:56 AM 59.0 °F - 54.0 °F 83% 29.86 in 10.0 mi West 10.4 mph - N/A   Mostly Cloudy
2:56 AM 59.0 °F - 53.1 °F 81% 29.84 in 10.0 mi WNW 13.8 mph - N/A   Mostly Cloudy
3:56 AM 57.9 °F - 53.1 °F 84% 29.85 in 10.0 mi WNW 10.4 mph - N/A   Mostly Cloudy
4:56 AM 57.9 °F - 53.1 °F 84% 29.85 in 10.0 mi WNW 11.5 mph - N/A   Mostly Cloudy
5:56 AM 59.0 °F - 53.1 °F 81% 29.85 in 10.0 mi WNW 12.7 mph - 0.00 in   Mostly Cloudy
7:56 AM 61.0 °F - 54.0 °F 78% 29.89 in 10.0 mi WNW 15.0 mph - N/A   Partly Cloudy
8:56 AM 62.1 °F - 54.0 °F 75% 29.90 in 10.0 mi WNW 16.1 mph - N/A   Partly Cloudy
9:56 AM 64.9 °F - 55.0 °F 70% 29.91 in 10.0 mi WNW 13.8 mph - N/A   Partly Cloudy
10:56 AM 69.1 °F - 55.9 °F 63% 29.91 in 10.0 mi NW 9.2 mph - N/A   Partly Cloudy
11:56 AM 72.0 °F - 57.0 °F 59% 29.90 in 10.0 mi NW 10.4 mph - N/A   Partly Cloudy
12:56 PM 73.0 °F - 55.9 °F 55% 29.90 in 10.0 mi WNW 12.7 mph - N/A   Partly Cloudy
1:56 PM 75.9 °F - 55.9 °F 50% 29.88 in 10.0 mi WNW 12.7 mph - N/A   Scattered Clouds
2:56 PM 81.0 °F 80.8 °F 55.9 °F 42% 29.88 in 10.0 mi WNW 11.5 mph - N/A   Scattered Clouds
3:56 PM 75.9 °F - 55.0 °F 48% 29.88 in 10.0 mi WNW 18.4 mph - N/A   Mostly Cloudy
4:24 PM 71.6 °F - 55.4 °F 57% 29.88 in 10.0 mi WNW 24.2 mph 31.1 mph N/A   Mostly Cloudy
4:56 PM 69.1 °F - 55.0 °F 61% 29.88 in 10.0 mi WNW 24.2 mph 32.2 mph N/A   Mostly Cloudy
5:56 PM 66.0 °F - 54.0 °F 65% 29.89 in 10.0 mi WNW 24.2 mph 33.4 mph N/A   Scattered Clouds
6:56 PM 63.0 °F - 54.0 °F 72% 29.88 in 10.0 mi WNW 24.2 mph 31.1 mph N/A   Scattered Clouds
7:56 PM 61.0 °F - 54.0 °F 78% 29.90 in 10.0 mi WNW 20.7 mph 27.6 mph N/A   Scattered Clouds
8:56 PM 60.1 °F - 54.0 °F 80% 29.91 in 10.0 mi WNW 20.7 mph 26.5 mph N/A   Scattered Clouds
9:56 PM 59.0 °F - 54.0 °F 83% 29.91 in 10.0 mi WNW 12.7 mph - N/A   Scattered Clouds
10:56 PM 59.0 °F - 54.0 °F 83% 29.92 in 10.0 mi WNW 12.7 mph - N/A   Scattered Clouds
11:56 PM 59.0 °F - 54.0 °F 83% 29.93 in 10.0 mi WNW 10.4 mph - N/A   Scattered Clouds